Time,TemperatureF,DewpointF,PressureIn,WindDirection,WindDirectionDegrees,WindSpeedMPH,WindSpeedGustMPH,Humidity,HourlyPrecipIn,Conditions,Clouds,dailyrainin,SoftwareType,DateUTC
2013-08-09 00:33:00,71.0,-99.9,-100.00,WSW,240,-999.0,-999.0,-999,0.04,,,-99.99,,2013-08-09 04:33:00,
2013-08-09 00:43:00,71.0,-99.9,-100.00,WSW,240,-999.0,-999.0,-999,0.04,,,-99.99,,2013-08-09 04:43:00,
2013-08-09 00:52:00,71.0,-99.9,-100.00,WSW,240,-999.0,-999.0,-999,-99.99,,,-99.99,,2013-08-09 04:52:00,
2013-08-09 01:33:00,71.0,-99.9,-100.00,WSW,240,-999.0,-999.0,-999,-99.99,,,-99.99,,2013-08-09 05:33:00,
2013-08-09 01:43:00,71.0,-99.9,-100.00,WSW,240,-999.0,-999.0,-999,-99.99,,,-99.99,,2013-08-09 05:43:00,
2013-08-09 01:52:00,71.0,-99.9,-100.00,WSW,240,-999.0,-999.0,-999,0.01,,,-99.99,,2013-08-09 05:52:00,
2013-08-09 02:32:00,71.0,-99.9,-100.00,WSW,240,-999.0,-999.0,-999,0.01,,,-99.99,,2013-08-09 06:32:00,
2013-08-09 02:43:00,71.0,-99.9,-100.00,WSW,240,-999.0,-999.0,-999,0.01,,,-99.99,,2013-08-09 06:43:00,
2013-08-09 02:52:00,71.0,-99.9,-100.00,WSW,240,-999.0,-999.0,-999,0.10,,,-99.99,,2013-08-09 06:52:00,
2013-08-09 03:33:00,71.0,-99.9,-100.00,WSW,240,-999.0,-999.0,-999,0.10,,,-99.99,,2013-08-09 07:33:00,
2013-08-09 03:43:00,71.0,-99.9,-100.00,WSW,240,-999.0,-999.0,-999,0.10,,,-99.99,,2013-08-09 07:43:00,
2013-08-09 03:52:00,71.0,-99.9,-100.00,West,261,-999.0,-999.0,-999,0.39,,,-99.99,,2013-08-09 07:52:00,
2013-08-09 04:32:00,71.0,-99.9,-100.00,West,261,-999.0,-999.0,-999,0.39,,,-99.99,,2013-08-09 08:32:00,
2013-08-09 04:43:00,71.0,-99.9,-100.00,West,261,-999.0,-999.0,-999,0.39,,,-99.99,,2013-08-09 08:43:00,
2013-08-09 04:52:00,71.0,-99.9,-100.00,West,261,-999.0,-999.0,-999,0.22,,,-99.99,,2013-08-09 08:52:00,
2013-08-09 05:32:00,71.0,-99.9,-100.00,West,261,-999.0,-999.0,-999,0.22,,,-99.99,,2013-08-09 09:32:00,
2013-08-09 05:43:00,71.0,-99.9,-100.00,West,261,-999.0,-999.0,-999,0.22,,,-99.99,,2013-08-09 09:43:00,
2013-08-09 05:52:00,72.0,-99.9,-100.00,SW,229,6.0,8.0,-999,0.17,,,-99.99,,2013-08-09 09:52:00,
2013-08-09 06:43:00,72.0,-99.9,-100.00,SW,229,6.0,8.0,-999,0.17,,,-99.99,,2013-08-09 10:43:00,
2013-08-09 06:52:00,72.0,-99.9,-100.00,SW,228,-999.0,4.0,-999,0.14,,,-99.99,,2013-08-09 10:52:00,
2013-08-09 07:43:00,72.0,-99.9,-100.00,SW,228,-999.0,4.0,-999,0.14,,,-99.99,,2013-08-09 11:43:00,
2013-08-09 07:52:00,72.0,-99.9,-100.00,SW,233,-999.0,-999.0,-999,0.05,,,-99.99,,2013-08-09 11:52:00,
2013-08-09 08:32:00,72.0,-99.9,-100.00,SW,233,-999.0,-999.0,-999,0.05,,,-99.99,,2013-08-09 12:32:00,
2013-08-09 08:43:00,72.0,-99.9,-100.00,SW,233,-999.0,-999.0,-999,0.05,,,-99.99,,2013-08-09 12:43:00,
2013-08-09 08:52:00,72.0,-99.9,-100.00,SW,232,5.0,10.0,-999,0.07,,,-99.99,,2013-08-09 12:52:00,
2013-08-09 09:32:00,72.0,-99.9,-100.00,SW,232,5.0,10.0,-999,0.07,,,-99.99,,2013-08-09 13:32:00,
2013-08-09 09:43:00,72.0,-99.9,-100.00,SW,232,5.0,10.0,-999,0.07,,,-99.99,,2013-08-09 13:43:00,
2013-08-09 09:52:00,73.0,-99.9,-100.00,South,176,-999.0,-999.0,-999,0.05,,,-99.99,,2013-08-09 13:52:00,
2013-08-09 10:43:00,73.0,-99.9,-100.00,South,176,-999.0,-999.0,-999,0.05,,,-99.99,,2013-08-09 14:43:00,
2013-08-09 10:52:00,74.0,-99.9,-100.00,SSW,203,-999.0,5.0,-999,0.02,,,-99.99,,2013-08-09 14:52:00,
2013-08-09 11:33:00,74.0,-99.9,-100.00,SSW,203,-999.0,5.0,-999,0.02,,,-99.99,,2013-08-09 15:33:00,
2013-08-09 11:44:00,74.0,-99.9,-100.00,SSW,203,-999.0,5.0,-999,0.02,,,-99.99,,2013-08-09 15:44:00,
2013-08-09 11:52:00,76.0,-99.9,-100.00,SW,235,-999.0,7.0,-999,0.02,,,-99.99,,2013-08-09 15:52:00,
2013-08-09 12:32:00,76.0,-99.9,-100.00,SW,235,-999.0,7.0,-999,0.02,,,-99.99,,2013-08-09 16:32:00,
2013-08-09 12:43:00,76.0,-99.9,-100.00,SW,235,-999.0,7.0,-999,0.02,,,-99.99,,2013-08-09 16:43:00,
2013-08-09 12:52:00,79.0,-99.9,-100.00,SSE,166,-999.0,7.0,-999,0.00,,,-99.99,,2013-08-09 16:52:00,
2013-08-09 13:33:00,79.0,-99.9,-100.00,SSE,166,-999.0,7.0,-999,0.00,,,-99.99,,2013-08-09 17:33:00,
2013-08-09 13:43:00,79.0,-99.9,-100.00,SSE,166,-999.0,7.0,-999,0.00,,,-99.99,,2013-08-09 17:43:00,
2013-08-09 13:53:00,81.0,-99.9,-100.00,SSW,200,-999.0,10.0,-999,0.00,,,-99.99,,2013-08-09 17:53:00,
2013-08-09 14:32:00,81.0,-99.9,-100.00,SSW,200,-999.0,10.0,-999,0.00,,,-99.99,,2013-08-09 18:32:00,
2013-08-09 14:43:00,81.0,-99.9,-100.00,SSW,200,-999.0,10.0,-999,0.00,,,-99.99,,2013-08-09 18:43:00,
2013-08-09 14:52:00,80.0,-99.9,-100.00,SSW,198,5.0,-999.0,-999,0.00,,,-99.99,,2013-08-09 18:52:00,
2013-08-09 15:43:00,80.0,-99.9,-100.00,SSW,198,5.0,-999.0,-999,0.00,,,-99.99,,2013-08-09 19:43:00,
2013-08-09 15:52:00,78.0,-99.9,-100.00,West,265,-999.0,-999.0,-999,0.00,,,-99.99,,2013-08-09 19:52:00,
2013-08-09 16:32:00,78.0,-99.9,-100.00,West,265,-999.0,-999.0,-999,0.00,,,-99.99,,2013-08-09 20:32:00,
2013-08-09 16:43:00,78.0,-99.9,-100.00,West,265,-999.0,-999.0,-999,0.00,,,-99.99,,2013-08-09 20:43:00,
2013-08-09 16:52:00,77.0,-99.9,-100.00,SW,229,7.0,7.0,-999,0.01,,,-99.99,,2013-08-09 20:52:00,
2013-08-09 17:33:00,77.0,-99.9,-100.00,SW,229,7.0,7.0,-999,0.01,,,-99.99,,2013-08-09 21:33:00,
2013-08-09 17:43:00,77.0,-99.9,-100.00,SW,229,7.0,7.0,-999,0.01,,,-99.99,,2013-08-09 21:43:00,
2013-08-09 17:52:00,74.0,-99.9,-100.00,SSE,163,-999.0,8.0,-999,0.01,,,-99.99,,2013-08-09 21:52:00,
2013-08-09 18:32:00,74.0,-99.9,-100.00,SSE,163,-999.0,8.0,-999,0.01,,,-99.99,,2013-08-09 22:32:00,
2013-08-09 18:43:00,74.0,-99.9,-100.00,SSE,163,-999.0,8.0,-999,0.01,,,-99.99,,2013-08-09 22:43:00,
2013-08-09 18:52:00,74.0,-99.9,-100.00,SSE,163,-999.0,-999.0,-999,0.04,,,-99.99,,2013-08-09 22:52:00,
2013-08-09 19:32:00,74.0,-99.9,-100.00,SSE,163,-999.0,-999.0,-999,0.04,,,-99.99,,2013-08-09 23:32:00,
2013-08-09 19:43:00,74.0,-99.9,-100.00,SSE,163,-999.0,-999.0,-999,0.04,,,-99.99,,2013-08-09 23:43:00,
2013-08-09 19:52:00,73.0,-99.9,-100.00,SSE,163,-999.0,-999.0,-999,0.03,,,-99.99,,2013-08-09 23:52:00,
2013-08-09 20:33:00,73.0,-99.9,-100.00,SSE,163,-999.0,-999.0,-999,0.03,,,-99.99,,2013-08-10 00:33:00,
2013-08-09 20:43:00,73.0,-99.9,-100.00,SSE,163,-999.0,-999.0,-999,0.03,,,-99.99,,2013-08-10 00:43:00,
2013-08-09 20:52:00,72.0,-99.9,-100.00,SSE,163,-999.0,-999.0,-999,0.03,,,-99.99,,2013-08-10 00:52:00,
2013-08-09 21:32:00,72.0,-99.9,-100.00,SSE,163,-999.0,-999.0,-999,0.03,,,-99.99,,2013-08-10 01:32:00,
2013-08-09 21:43:00,72.0,-99.9,-100.00,SSE,163,-999.0,-999.0,-999,0.03,,,-99.99,,2013-08-10 01:43:00,
2013-08-09 21:52:00,71.0,-99.9,-100.00,SSE,163,-999.0,-999.0,-999,0.02,,,-99.99,,2013-08-10 01:52:00,
2013-08-09 22:32:00,71.0,-99.9,-100.00,SSE,163,-999.0,-999.0,-999,0.02,,,-99.99,,2013-08-10 02:32:00,
2013-08-09 22:42:00,71.0,-99.9,-100.00,SSE,163,-999.0,-999.0,-999,0.02,,,-99.99,,2013-08-10 02:42:00,
2013-08-09 22:52:00,70.0,-99.9,-100.00,SSE,163,-999.0,-999.0,-999,0.03,,,-99.99,,2013-08-10 02:52:00,
2013-08-09 23:32:00,70.0,-99.9,-100.00,SSE,163,-999.0,-999.0,-999,0.03,,,-99.99,,2013-08-10 03:32:00,
2013-08-09 23:42:00,70.0,-99.9,-100.00,SSE,163,-999.0,-999.0,-999,0.03,,,-99.99,,2013-08-10 03:42:00,
2013-08-09 23:52:00,69.0,-99.9,-100.00,SSE,163,-999.0,-999.0,-999,0.02,,,-99.99,,2013-08-10 03:52:00,